Date String (YYYY-MM-DD hh:mm:ss) UTC,Instrument flags,Ambient pressure (hPa),Sample flow (lpm),Bypass flow (lpm),Sample temperature (°C),Ambient temperature (°C),ASC tube jacket temperature (°C),LED temperature (°C),Box temperature (°C),Sample RH (%),Span deviation,Mass concentration (μg/m³),Mass concentration (μg/m³),Mass concentration (μg/m³)
DateTimeUTC,F1_M11,P_M11,Q1_M11,Q2_M11,T1_M11,T2_M11,T3_M11,T4_M11,T5_M11,U1_M11,ZSPAN_M11,X0_M11,X2_M11,X1_M11
2022-12-25 11:00:00,,0826.2,5.03,0.00,21.7,20.4,00.0,30.6,23.5,14.0,0000.0,0000.93,0000.53,0000.38
2022-12-25 11:01:00,,0826.2,4.99,0.00,21.7,20.4,00.0,30.6,23.4,13.8,0000.0,0000.90,0000.51,0000.37
2022-12-25 11:02:00,,0826.2,4.98,0.00,21.7,20.4,00.0,30.6,23.4,13.8,0000.0,0000.91,0000.53,0000.40
2022-12-25 11:03:00,,0826.2,4.99,0.00,21.7,20.4,00.0,30.6,23.5,13.8,0000.0,0001.09,0000.70,0000.55
2022-12-25 11:04:00,,0826.2,5.02,0.00,21.7,20.5,00.0,30.6,23.5,13.8,0000.0,0001.22,0000.85,0000.70
2022-12-25 11:05:00,,0826.3,5.02,0.00,21.7,20.5,00.0,30.6,23.5,13.8,0000.0,0001.39,0001.01,0000.84
2022-12-25 11:06:00,,0826.2,5.01,0.00,21.7,20.4,00.0,30.6,23.5,13.7,0000.0,0001.53,0001.17,0001.02
2022-12-25 11:07:00,,0826.2,4.98,0.00,21.7,20.4,00.0,30.6,23.5,13.7,0000.0,0001.56,0001.21,0001.08
2022-12-25 11:08:00,,0826.2,4.96,0.00,21.7,20.4,00.0,30.6,23.5,13.7,0000.0,0001.56,0001.23,0001.12
2022-12-25 11:09:00,,0826.1,5.02,0.00,21.7,20.3,00.0,30.6,23.4,13.7,0000.0,0001.55,0001.23,0001.12
2022-12-25 11:10:00,,0826.1,5.02,0.00,21.7,20.3,00.0,30.6,23.4,13.9,0000.0,0001.53,0001.23,0001.12
2022-12-25 11:11:00,,0826.2,5.01,0.00,21.7,20.2,00.0,30.6,23.3,13.7,0000.0,0001.49,0001.21,0001.11
2022-12-25 11:12:00,,0826.0,4.99,0.00,21.6,20.0,00.0,30.6,23.2,13.7,0000.0,0001.61,0001.24,0001.11
2022-12-25 11:13:00,,0825.9,4.98,0.00,21.6,19.9,00.0,30.6,23.2,13.7,0000.0,0001.59,0001.21,0001.08
2022-12-25 11:14:00,,0826.1,4.98,0.00,21.6,19.9,00.0,30.5,23.2,13.7,0000.0,0001.30,0001.01,0000.92
2022-12-25 11:15:00,,0825.9,5.01,0.00,21.6,20.0,00.0,30.5,23.2,13.7,0000.0,0001.12,0000.86,0000.77
2022-12-25 11:16:00,,0825.8,5.00,0.00,21.6,20.0,00.0,30.5,23.3,13.7,0000.0,0000.98,0000.71,0000.63
2022-12-25 11:17:00,,0826.0,5.00,0.00,21.6,20.0,00.0,30.5,23.3,13.7,0000.0,0000.86,0000.56,0000.45
2022-12-25 11:18:00,,0826.0,4.98,0.00,21.6,20.0,00.0,30.5,23.3,13.9,0000.0,0000.86,0000.57,0000.45
2022-12-25 11:19:00,,0826.0,4.98,0.00,21.6,20.8,00.0,30.4,23.4,14.0,0000.0,0001.12,0000.73,0000.60
2022-12-25 11:20:00,,0825.9,5.02,0.00,21.7,21.9,00.0,30.4,23.7,13.9,0000.0,0001.42,0001.02,0000.89
2022-12-25 11:21:00,,0825.9,5.02,0.00,21.8,22.1,00.0,30.5,23.8,13.8,0000.0,0001.76,0001.35,0001.23
2022-12-25 11:22:00,,0826.0,5.00,0.00,21.9,21.7,00.0,30.5,23.8,13.7,0000.0,0002.30,0001.80,0001.63
2022-12-25 11:23:00,,0826.0,4.97,0.00,21.9,21.3,00.0,30.6,23.7,13.7,0000.0,0003.18,0002.30,0002.06
2022-12-25 11:24:00,,0826.2,5.02,0.00,21.9,21.1,00.0,30.6,23.7,13.7,0000.0,0005.05,0002.78,0002.51
2022-12-25 11:25:00,,0826.2,5.04,0.00,21.9,20.9,00.0,30.6,23.7,13.7,0000.0,0005.56,0003.17,0002.96
2022-12-25 11:26:00,,0826.2,5.00,0.00,21.9,20.8,00.0,30.6,23.7,13.7,0000.0,0005.99,0003.41,0003.26
2022-12-25 11:27:00,,0826.2,4.98,0.00,21.8,20.7,00.0,30.7,23.6,13.7,0000.0,0006.45,0003.66,0003.51
2022-12-25 11:28:00,,0826.2,4.98,0.00,21.8,20.6,00.0,30.7,23.6,13.7,0000.0,0006.84,0003.88,0003.73
2022-12-25 11:29:00,,0826.2,5.01,0.00,21.8,20.4,00.0,30.7,23.5,13.7,0000.0,0007.37,0004.14,0003.97
2022-12-25 11:30:00,,0826.2,5.02,0.00,21.8,20.3,00.0,30.7,23.5,13.8,0000.0,0007.59,0004.30,0004.12
2022-12-25 11:31:00,,0826.2,4.98,0.00,21.8,20.2,00.0,30.7,23.4,13.8,0000.0,0007.67,0004.39,0004.21
2022-12-25 11:32:00,,0826.3,4.98,0.00,21.7,20.1,00.0,30.6,23.4,13.8,0000.0,0007.72,0004.43,0004.26
2022-12-25 11:33:00,,0826.4,4.98,0.00,21.7,20.4,00.0,30.6,23.4,13.8,0000.0,0007.67,0004.43,0004.28
2022-12-25 11:34:00,,0826.5,5.02,0.00,21.8,21.5,00.0,30.6,23.7,13.8,0000.0,0007.52,0004.40,0004.29
2022-12-25 11:35:00,,0826.5,5.03,0.00,21.9,22.1,00.0,30.6,23.9,13.7,0000.0,0006.07,0004.41,0004.31
2022-12-25 11:36:00,,0826.5,4.98,0.00,22.0,21.8,00.0,30.7,23.9,13.7,0000.0,0006.10,0004.46,0004.36
2022-12-25 11:37:00,,0826.5,4.97,0.00,22.0,21.5,00.0,30.7,23.8,13.7,0000.0,0006.21,0004.51,0004.41
2022-12-25 11:38:00,,0826.3,4.98,0.00,22.0,21.2,00.0,30.7,23.7,13.6,0000.0,0006.31,0004.56,0004.45
2022-12-25 11:39:00,,0826.5,5.02,0.00,22.0,20.9,00.0,30.7,23.7,13.7,0000.0,0006.41,0004.60,0004.49
2022-12-25 11:40:00,,0826.5,5.04,0.00,21.9,20.7,00.0,30.8,23.6,13.7,0000.0,0006.39,0004.62,0004.51
2022-12-25 11:41:00,,0826.6,5.00,0.00,21.9,20.6,00.0,30.8,23.6,13.6,0000.0,0006.38,0004.66,0004.55
2022-12-25 11:42:00,,0826.5,4.98,0.00,21.9,20.5,00.0,30.8,23.6,13.6,0000.0,0006.49,0004.69,0004.58
2022-12-25 11:43:00,,0826.5,4.98,0.00,21.9,20.5,00.0,30.8,23.6,13.7,0000.0,0006.67,0004.74,0004.63
2022-12-25 11:44:00,,0826.5,4.99,0.00,21.9,20.4,00.0,30.7,23.6,13.7,0000.0,0006.78,0004.79,0004.68
2022-12-25 11:45:00,,0826.5,5.02,0.00,21.9,20.4,00.0,30.7,23.6,13.6,0000.0,0006.95,0004.86,0004.73
2022-12-25 11:46:00,,0826.6,5.00,0.00,21.9,20.4,00.0,30.7,23.6,13.6,0000.0,0007.13,0004.92,0004.77
2022-12-25 11:47:00,,0826.7,5.00,0.00,21.9,20.5,00.0,30.7,23.6,13.7,0000.0,0007.16,0004.93,0004.78
2022-12-25 11:48:00,,0826.7,4.97,0.00,21.9,21.3,00.0,30.7,23.8,13.6,0000.0,0007.26,0004.96,0004.79
2022-12-25 11:49:00,,0826.9,4.99,0.00,22.0,22.3,00.0,30.7,24.1,13.5,0000.0,0007.30,0004.97,0004.79
2022-12-25 11:50:00,,0826.8,5.03,0.00,22.1,22.3,00.0,30.7,24.1,13.4,0000.0,0007.41,0004.99,0004.79
2022-12-25 11:51:00,,0826.8,5.02,0.00,22.1,21.9,00.0,30.8,24.1,13.4,0000.0,0007.43,0004.99,0004.79
2022-12-25 11:52:00,,0826.8,4.98,0.00,22.1,21.5,00.0,30.8,24.0,13.4,0000.0,0007.44,0005.00,0004.79
2022-12-25 11:53:00,,0826.9,4.97,0.00,22.1,21.3,00.0,30.9,23.9,13.5,0000.0,0007.50,0005.04,0004.82
2022-12-25 11:54:00,,0826.9,5.00,0.00,22.1,21.1,00.0,30.9,23.9,13.5,0000.0,0007.49,0005.08,0004.85
2022-12-25 11:55:00,,0826.9,5.03,0.00,22.1,20.9,00.0,30.9,23.9,13.5,0000.0,0007.51,0005.09,0004.86
2022-12-25 11:56:00,,0826.9,5.01,0.00,22.1,20.8,00.0,30.9,23.8,13.6,0000.0,0007.55,0005.09,0004.85
2022-12-25 11:57:00,,0826.9,4.98,0.00,22.1,20.7,00.0,30.9,23.8,13.7,0000.0,0007.48,0005.05,0004.84
2022-12-25 11:58:00,,0826.9,4.97,0.00,22.1,20.7,00.0,30.9,23.8,13.7,0000.0,0007.43,0005.02,0004.83
2022-12-25 11:59:00,,0827.0,5.03,0.00,22.1,20.6,00.0,30.9,23.8,13.7,0000.0,0007.66,0005.01,0004.83
